Location: Assche-ter-Heiden
(50.9174°N, 4.1574°E)
Time: 17:10:59
(UTC+00:00)

H-2A R/B - Pass Details

Date: 20 January 2020
Orbit: 503 x 540 km, 97.3° (Epoch: 21 February)

Event Time Altitude Azimuth Distance (km) Brightness Sun altitude
Rises 06:17:04 0° 11° (N) 2,713 6.3 -12.1°
Reaches altitude 10° 06:19:12 10° 9° (N) 1,816 5.4 -11.8°
Maximum altitude 06:23:07 72° 287° (WNW) 574 2.7 -11.2°
Drops below altitude 10° 06:26:59 10° 202° (SSW) 1,793 5.4 -10.6°
Sets 06:29:05 0° 200° (SSW) 2,675 6.3 -10.3°
